RH
50 54 57 59 62 65 74 84 88 94 93 86 83 80 76 77 80 86 81 75 80 73 74 67 54 50 48 47 46 43 38 33
54 56 61 63 67 79 95 90 90 87 82 79 75 75 79 84 79 70 71 68 67 63 57 52 52 51 49 47 46 43 39 34
59 59 64 74 85 89 78 75 73 69 64 67 71 73 66 63 61 60 59 58 55 51 50 50 50 50 51 48 41 35 32 28
64 69 72 73 71 67 64 61 57 60 61 56 56 56 57 58 59 59 57 54 52 54 54 54 52 47 40 33 27 22 21 22
64 64 64 65 61 55 54 55 59 59 57 57 59 60 61 61 58 58 58 59 59 57 52 44 39 36 31 27 24 24 26 29
59 65 64 61 58 60 65 66 64 62 62 62 62 63 63 61 62 62 61 56 50 49 42 38 36 34 33 30 30 30 32 36
69 71 65 64 67 75 70 71 71 70 69 64 64 62 60 59 58 54 50 46 37 33 31 30 29 31 29 35 34 34 38 38
61 65 72 80 76 74 72 72 70 69 66 62 60 58 55 51 46 42 36 32 31 30 31 35 37 37 38 46 46 49 50 50
67 79 78 66 67 69 69 70 69 66 63 57 55 49 46 44 41 38 36 37 36 35 39 42 44 46 47 46 47 50 55 52
65 63 59 61 65 68 69 69 67 64 57 56 51 48 46 41 39 38 37 37 37 41 43 47 48 48 48 55 59 64 62 62
57 59 60 61 63 65 67 68 66 60 61 56 50 46 42 41 38 39 36 37 39 41 41 41 45 47 52 59 65 69 68 67
57 56 59 61 65 68 72 68 65 69 61 52 49 47 43 42 40 36 33 31 29 29 36 43 46 47 63 65 66 71 76 74
56 61 63 66 68 72 65 70 74 63 57 54 51 48 44 40 36 31 30 29 28 30 38 42 51 55 54 66 70 74 74 68
61 63 65 66 66 66 72 72 65 59 59 55 50 44 39 35 30 29 28 27 26 32 42 46 54 51 67 69 72 73 67 58
61 64 66 67 66 70 70 63 62 60 56 52 48 40 35 33 31 31 30 28 29 33 43 49 53 61 71 73 69 62 53 49
62 64 65 65 72 69 61 58 59 57 55 51 43 39 35 34 32 31 30 30 33 39 43 50 60 68 68 63 56 48 48 45
62 65 67 76 69 63 62 63 60 56 52 43 38 37 35 34 32 31 33 34 37 43 54 62 64 71 69 50 47 45 46 41
64 69 73 71 68 66 64 61 58 53 43 38 38 38 36 33 33 34 36 37 41 51 61 66 71 69 48 45 44 45 42 37
65 72 67 66 65 64 61 59 54 44 39 39 39 36 34 33 35 34 39 43 50 59 65 72 65 49 46 45 43 43 38 37